Cold Bay, AK

9:48 PM AKDT on May 22, 2018 (GMT -0800)
Cold Bay

Weather History for PACD - March, 2013

Change the Weather History Date:

Wednesday, March 6, 2013

  Actual Average Record
Temperature  
Mean Temperature 36 °F 30 °F  
Max Temperature 40 °F 35 °F 44 °F (1952)
Min Temperature 31 °F 25 °F -3 °F (1956)
Degree Days  
Heating Degree Days 29 35  
Month to date heating degree days 198 210  
Since 1 July heating degree days 6612 6428  
Cooling Degree Days 0 0  
Month to date cooling degree days 0 0  
Year to date cooling degree days 0 0  
Moisture  
Dew Point 32 °F    
Average Humidity 84    
Maximum Humidity 96    
Minimum Humidity 67    
Precipitation  
Precipitation 0.51 in 0.10 in 0.74 in (2000)
Month to date precipitation 1.17 0.59  
Year to date precipitation 7.08 6.73  
Snow  
Snow 0.00 in 0.40 in 3.00 in (1978)
Month to date snowfall 1.7 2.6  
Since 1 July snowfall 53.5 54.8  
Snow Depth 0.00 in    
Sea Level Pressure  
Sea Level Pressure 29.06 in    
Wind  
Wind Speed 23 mph (ESE)    
Max Wind Speed 52 mph    
Max Gust Speed 64 mph    
Visibility 6 miles    
Events Rain , Snow    
T = Trace of Precipitation, MM = Missing Value Source: NWS Daily Summary

Daily Weather History Graph

Daily Weather History Graph

Search for Another Location

Airport or City:

Astronomy

Mar. 06, 2013 Rise Set
Actual Time 8:27 AM AKST 7:37 PM AKST
Civil Twilight 7:51 AM AKST 8:13 PM AKST
Nautical Twilight 7:09 AM AKST 8:56 PM AKST
Astronomical Twilight 6:25 AM AKST 9:39 PM AKST
Moon 5:30 AM AKST (3/6) 1:50 PM AKST (3/6)
Length of Visible Light 12h 22m
Length of Day
11h 10m
Waning Crescent, 28% of the Moon is Illuminated
Mar 6
Waning Crescent
Mar 11
New
Mar 19
First Quarter
Mar 27
Full
Apr 2
Last Quarter

Hourly Weather History & Observations

Time (AKST) Temp. Windchill Dew Point Humidity Pressure Visibility Wind Dir Wind Speed Gust Speed Precip Events Conditions
12:53 AM 33.1 °F 24.9 °F 28.0 °F 82% 29.76 in 10.0 mi SSE 10.4 mph - N/A   Clear
1:53 AM 33.1 °F 24.9 °F 30.0 °F 89% 29.75 in 10.0 mi SSE 10.4 mph - N/A   Partly Cloudy
3:53 AM 34.0 °F 25.5 °F 30.9 °F 89% 29.72 in 10.0 mi SE 11.5 mph - N/A   Clear
4:53 AM 35.1 °F 25.9 °F 30.0 °F 82% 29.72 in 10.0 mi SE 13.8 mph - N/A   Overcast
5:15 AM 35.6 °F 27.5 °F 30.2 °F 81% 29.71 in 10.0 mi SE 11.5 mph - N/A   Overcast
5:22 AM 35.6 °F 27.5 °F 30.2 °F 81% 29.70 in 10.0 mi SE 11.5 mph - N/A   Overcast
5:53 AM 35.1 °F 25.9 °F 30.0 °F 82% 29.70 in 10.0 mi SE 13.8 mph - N/A   Overcast
6:53 AM 35.1 °F 25.9 °F 30.0 °F 82% 29.68 in 10.0 mi SE 13.8 mph - N/A   Overcast
7:53 AM 35.1 °F 25.5 °F 30.0 °F 82% 29.62 in 10.0 mi SE 15.0 mph - N/A   Overcast
8:53 AM 36.0 °F 26.3 °F 30.0 °F 79% 29.59 in 10.0 mi SE 16.1 mph - N/A   Overcast
9:53 AM 36.0 °F 26.7 °F 28.9 °F 76% 29.55 in 10.0 mi SE 15.0 mph - N/A   Overcast
10:53 AM 35.1 °F 23.0 °F 28.9 °F 78% 29.48 in 10.0 mi ENE 24.2 mph 31.1 mph N/A   Overcast
11:53 AM 36.0 °F 23.7 °F 27.0 °F 70% 29.39 in 10.0 mi East 26.5 mph 40.3 mph N/A   Overcast
12:53 PM 36.0 °F 24.4 °F 26.1 °F 67% 29.25 in 10.0 mi East 23.0 mph 35.7 mph N/A   Overcast
1:53 PM 36.0 °F 22.6 °F 26.1 °F 67% 29.15 in 9.0 mi East 32.2 mph 50.6 mph 0.00 in Snow Light Snow
2:10 PM 35.6 °F 22.1 °F 26.6 °F 70% 29.08 in 2.5 mi ENE 32.2 mph 46.0 mph 0.00 in Snow Light Snow
2:17 PM 33.8 °F 19.0 °F 28.4 °F 81% 29.09 in 0.8 mi ENE 35.7 mph 46.0 mph 0.00 in Snow Light Snow
2:29 PM 33.8 °F 19.0 °F 28.4 °F 81% 29.05 in 0.5 mi ENE 35.7 mph 48.3 mph 0.00 in Snow Snow
2:44 PM 33.8 °F 19.0 °F 30.2 °F 87% 29.02 in 0.5 mi ENE 35.7 mph 46.0 mph 0.01 in Snow Snow
2:53 PM 33.1 °F 18.4 °F 30.0 °F 89% 28.99 in 0.5 mi ENE 33.4 mph 42.6 mph 0.01 in Snow Snow
3:01 PM 33.8 °F 18.8 °F 30.2 °F 87% 28.97 in 0.2 mi ENE 36.8 mph 49.5 mph 0.02 in Snow Heavy Snow
3:17 PM 33.8 °F 19.6 °F 30.2 °F 87% 28.91 in 0.2 mi East 32.2 mph 47.2 mph 0.05 in Snow Heavy Snow
3:36 PM 33.8 °F 17.9 °F 32.0 °F 93% 28.87 in 0.5 mi East 42.6 mph 49.5 mph 0.10 in Snow Snow
3:53 PM 34.0 °F 17.4 °F 30.9 °F 89% 28.84 in 0.2 mi East 48.3 mph 59.8 mph 0.11 in Snow Heavy Snow
4:09 PM 33.8 °F 17.5 °F 30.2 °F 87% 28.79 in 0.5 mi East 46.0 mph 62.1 mph 0.03 in Snow Snow
4:24 PM 33.8 °F 17.5 °F 30.2 °F 87% 28.76 in 0.8 mi East 46.0 mph 62.1 mph 0.06 in Snow Light Snow
4:31 PM 33.8 °F 18.1 °F 32.0 °F 93% 28.75 in 1.0 mi East 41.4 mph 59.8 mph 0.07 in Snow Light Snow
4:53 PM 34.0 °F 18.9 °F 33.1 °F 96% 28.73 in 2.0 mi East 38.0 mph 58.7 mph 0.11 in Snow Light Snow
5:40 PM 37.4 °F 22.5 °F 35.6 °F 93% 28.67 in 1.5 mi ESE 46.0 mph 58.7 mph 0.06 in Snow Light Snow
5:53 PM 37.9 °F 23.3 °F 36.0 °F 93% 28.67 in 1.5 mi ESE 46.0 mph 64.4 mph 0.09 in Snow Light Snow
6:11 PM 37.4 °F 22.5 °F 35.6 °F 93% 28.66 in 2.0 mi ESE 46.0 mph 56.4 mph 0.02 in Snow Light Snow
6:39 PM 39.2 °F 25.8 °F 33.8 °F 81% 28.64 in 3.0 mi ESE 40.3 mph 52.9 mph 0.06 in   Haze
6:53 PM 39.0 °F 25.9 °F 34.0 °F 82% 28.62 in 4.0 mi ESE 38.0 mph 49.5 mph 0.08 in Rain Light Rain
7:22 PM 39.2 °F 27.2 °F 33.8 °F 81% 28.60 in 5.0 mi ESE 31.1 mph 41.4 mph 0.01 in Rain Light Rain
7:53 PM 39.0 °F 27.8 °F 35.1 °F 86% 28.59 in 10.0 mi ESE 26.5 mph 39.1 mph 0.02 in   Overcast
8:12 PM 39.2 °F 29.0 °F 35.6 °F 87% 28.58 in 9.0 mi ESE 21.9 mph 32.2 mph 0.01 in   Overcast
8:53 PM 39.0 °F 28.8 °F 36.0 °F 89% 28.56 in 10.0 mi ESE 21.9 mph 29.9 mph 0.01 in   Overcast
9:53 PM 39.0 °F 29.3 °F 37.0 °F 93% 28.54 in 6.0 mi ESE 19.6 mph - 0.04 in Rain Light Rain
10:53 PM 39.0 °F 28.5 °F 36.0 °F 89% 28.51 in 8.0 mi SE 23.0 mph 31.1 mph 0.02 in Rain Light Rain
11:05 PM 39.2 °F 28.5 °F 37.4 °F 93% 28.49 in 4.0 mi SE 24.2 mph 31.1 mph 0.00 in Rain Rain
11:37 PM 39.2 °F 30.5 °F 37.4 °F 93% 28.50 in 3.0 mi SE 16.1 mph - 0.08 in Rain Rain
11:53 PM 39.0 °F 29.3 °F 37.0 °F 93% 28.50 in 5.0 mi SE 19.6 mph - 0.09 in Rain Light Rain